Showing default

GSAT 16, 40332

Orbit data source: Space-Track

GSAT 16, 40332 is a payload satellite owned by ISRO (IN) in GEO that was launched on Sat, 06 Dec 2014 UTC via an ARIANE 5ECA launch vehicle from the French Guiana (FRGUI). Payload-class satellites include a variety of spacecraft equipped with specific instruments for various scientific and technological missions. These include communications satellites like Starlink; space stations such as the ISS; scientific satellites like the Hubble; Earth observation satellites from companies like Planet Labs, Umbra, and HawkEye 360; GPS; miniature CubeSats for education and research; and military/defense satellites.

Not visible in the next 10 days
Identifier
40332, 2014-078A
Orbit
GEO
Country
Flag of ININ / IND
Related business
Manufacturer
ISRO SAC/Banga
Mission
Operational Civil Communications
Bus & Motor
I3K, ISRO LAM
Mass
3,180 kg wet, 2,000 kg dry
Launch date (UTC)
2014-12-06 (12 years ago)
Launch vehicle
ARIANE 5ECA
Launch site
French Guiana (FRGUI)
Object type
Payload
Rocket body
Debris
Shape & HBR
Box + 2 Pan, 7.7 m
Radar Cross Section
12.980 m², Large (>1 m²)

Expand to show TLE details & history
Last TLE update: 2 days ago

TLE from 2 days ago
0 GSAT 16
1 40332U 14078A   26171.18900372  .00000080  00000-0  00000-0 0  9997
2 40332   0.0460  88.2765 0007757 358.9794 304.2464  1.00269918 42130
Epoch: 2026-06-20T04:32Z
TLE epoch observation values (Epoch: 2026-06-20T04:32:09.921Z)
Latitude
-0.02645°
Longitude
54.99245°
Altitude
35,768.148 km
Speed
3.076 km/s
True Right ascension
02h 05m 45s
True Declination
0° 01' 35"
Sunlit
Object was in daylight at epoch
Visualization orbit readout
Latitude
Unknown
Longitude
Unknown
Altitude
Unknown
Speed
Unknown
Apparent Right ascension
Unknown
Apparent Declination
Unknown
Sunlit
N/A
Visualization observer readout
Local Sidereal Time
21:37:57
Azimuth
Unknown
Elevation
Unknown
Doppler factor
Unknown
Orbital elements
Apogee altitude
35,820.897 km
Perigee altitude
35,755.48 km
Semi-major axis
42,166.326 km
Eccentricity
0.00078
Inclination
0.046°
RAAN
88.2765°
Arg. of periapsis
358.9794°
True anomaly
304.17288°
Mean anomaly
304.2464°
Eccentric anomaly
304.20965°
Mean motion
0.25067 °/min
Orbital period
1,436.18 mins
BSTAR
0
Loading maneuver chart data...
Computing Atmospheric mass density...
Loading historical data...
Loading historical data...
Loading historical data...
Loading historical data...
Loading historical data...
Loading historical data...
Loading historical data...
Other satellites on launch #78 in the year 2014 (2014-12-06 UTC)

Documentation

Showing up to 5 results
|